GFSSGP_sfc_wetblb_198.txt.gz
Wetbulb
62.01 57.78 55.49 55.44 44.57 39.94 38.02 43.23 46.22 46.74 48.26 51.38 61.64 62.45 61.42 63.48 63.59 59.53 70.89 74.54 77.06 76.94 77.92 77.84 78.04 78.11 77.81 77.43 76.78 76.30 76.37 76.61 76.50 76.80 76.93 76.78 76.58 76.91 76.91 76.94 77.44 77.31 76.59 75.53 74.76 74.23 74.31 74.57 74.85
59.95 58.61 54.55 48.52 40.07 34.92 36.82 42.77 44.11 46.65 49.00 55.43 58.74 60.44 61.29 62.02 66.70 67.29 68.57 76.62 76.93 76.86 77.43 77.13 78.01 77.78 77.73 77.04 76.79 76.38 76.34 76.49 76.44 76.75 76.75 76.78 76.63 76.81 77.11 77.21 77.16 77.11 75.94 74.97 74.81 74.30 74.05 74.04 74.39
56.63 57.88 48.38 43.95 37.85 36.72 37.98 43.78 46.22 49.03 49.08 48.51 50.22 60.09 61.27 61.00 67.04 67.51 71.03 76.30 76.55 75.96 77.15 77.43 77.88 77.68 77.53 76.78 76.76 76.45 76.56 76.31 76.15 76.65 76.70 76.50 76.75 76.87 76.97 77.26 77.16 77.11 75.88 75.57 75.00 74.87 74.77 74.21 73.85
52.98 49.00 46.31 40.79 37.83 43.03 43.47 46.57 47.42 48.67 49.39 49.77 53.06 56.99 60.76 65.82 66.46 69.48 75.24 76.24 75.03 75.27 76.62 77.93 77.78 77.60 77.30 76.63 76.37 76.56 76.53 76.39 76.27 76.57 76.67 76.55 76.52 76.83 76.94 77.17 77.23 77.29 76.34 75.77 75.06 75.06 74.95 74.31 73.98
49.88 44.20 39.34 37.08 39.12 43.15 46.75 47.51 47.22 46.91 46.68 47.97 50.49 55.83 58.07 64.82 70.97 72.26 75.15 75.28 74.65 75.11 76.29 77.36 77.62 77.60 77.50 76.93 76.48 76.74 76.69 76.48 76.42 76.60 76.70 76.80 76.71 76.63 76.83 76.92 77.05 77.04 76.61 75.84 75.12 74.92 74.55 74.03 73.87
43.25 42.73 36.38 33.98 38.94 43.86 44.75 45.57 46.66 46.48 46.95 47.92 52.89 54.93 56.89 63.58 68.58 71.28 75.44 74.92 76.03 75.26 75.79 76.69 77.83 77.49 77.17 76.94 76.72 76.56 76.32 76.38 76.34 76.24 76.34 76.48 76.55 76.55 76.71 76.84 76.72 76.80 76.46 75.83 75.05 74.83 73.93 73.36 73.03
40.34 37.81 34.65 36.22 39.58 40.59 44.49 45.75 45.21 44.50 45.63 47.45 48.68 49.64 52.59 57.14 64.11 72.11 75.36 75.54 75.40 75.48 75.24 75.87 76.73 77.11 77.25 76.76 76.43 76.53 76.32 76.14 76.05 75.90 76.08 76.24 76.40 76.52 76.58 76.66 76.44 76.02 75.64 75.37 75.00 74.11 73.43 72.86 72.29
42.74 39.14 35.75 35.13 38.12 37.57 44.80 45.00 44.02 45.26 46.12 50.39 50.66 46.16 46.35 52.63 56.40 70.50 74.99 75.04 74.78 74.75 74.69 75.03 75.87 76.42 76.06 75.81 76.61 76.53 76.52 76.27 75.99 75.97 75.99 76.11 76.14 76.47 76.57 75.67 75.85 75.79 75.37 74.87 74.33 73.76 72.99 72.19 71.84
43.27 35.91 31.71 35.38 40.76 40.97 44.27 44.86 47.94 48.59 47.01 48.37 49.22 49.10 50.97 53.93 55.57 53.11 66.00 72.49 73.53 74.39 74.18 74.48 75.23 75.60 75.21 75.16 75.91 76.15 76.64 76.45 76.11 75.97 76.09 75.23 74.65 75.02 75.61 75.44 75.95 75.91 75.34 74.74 74.00 73.26 72.59 71.97 71.65
41.92 35.86 38.09 42.81 42.33 42.19 43.15 44.00 46.07 47.42 46.60 46.99 48.88 51.61 52.61 53.23 51.96 51.87 51.66 63.57 72.57 73.01 73.43 73.99 74.45 74.33 74.08 74.88 74.66 74.40 75.07 75.16 74.66 74.61 74.77 74.07 74.05 73.91 74.83 75.06 75.92 75.61 75.16 74.32 73.70 73.06 72.64 71.95 67.00
42.03 39.09 42.87 44.92 45.46 46.07 43.68 43.24 46.30 45.00 44.45 46.94 47.16 49.46 51.08 52.10 51.57 49.38 50.25 51.65 67.98 72.45 73.43 74.08 73.49 73.68 73.63 73.84 74.07 73.76 74.34 74.36 74.45 74.13 74.02 73.03 72.74 73.27 73.32 71.90 74.08 72.51 74.16 70.60 71.50 70.42 69.29 67.09 65.32
41.95 45.08 44.47 45.25 46.29 44.21 44.76 45.88 44.97 46.07 46.85 49.85 50.39 50.60 50.30 50.60 49.62 51.03 50.10 50.68 50.70 65.20 72.91 72.64 73.00 72.58 72.98 73.66 73.71 73.44 73.57 73.68 72.62 73.20 73.41 71.88 70.11 71.09 70.18 71.81 71.90 70.75 70.48 68.40 67.59 66.85 66.53 65.70 64.91
41.36 43.86 46.11 46.75 45.93 45.79 46.67 46.20 47.32 45.04 49.16 50.27 50.33 51.05 49.91 49.86 49.94 50.27 51.76 51.16 51.41 67.53 72.14 71.69 72.52 71.74 71.83 72.99 72.82 73.11 73.10 72.93 72.58 72.58 73.02 71.36 68.68 70.01 70.45 71.51 71.45 70.00 68.83 67.43 65.60 65.11 64.67 64.53 64.18
44.30 44.79 45.20 45.37 45.59 45.29 44.96 46.29 45.64 47.79 49.58 49.71 49.91 49.55 49.62 49.47 49.92 49.38 49.78 50.36 50.18 54.25 69.31 72.47 72.75 72.10 71.06 72.76 72.56 72.92 73.04 72.89 72.45 72.41 72.31 71.20 69.36 69.44 70.49 70.68 70.60 69.77 69.03 67.83 65.66 64.97 64.73 64.66 64.54
44.56 42.81 45.19 46.67 45.20 43.18 43.54 42.04 42.39 46.55 47.12 47.14 47.97 48.74 49.53 49.89 50.37 49.66 50.39 50.17 50.70 51.60 59.30 70.32 72.50 72.77 71.40 72.08 71.97 72.15 72.76 72.96 72.45 72.38 72.41 71.55 69.53 68.91 70.03 70.31 70.02 69.83 69.27 67.56 65.59 65.86 65.48 65.26 64.79
42.55 39.10 35.24 42.68 43.53 44.83 42.29 37.25 43.84 46.18 45.36 45.79 46.94 47.37 48.30 47.91 49.12 50.14 51.17 50.75 50.77 51.59 54.09 60.57 71.72 72.13 71.75 71.37 71.65 71.68 71.61 72.40 72.41 72.39 72.65 72.35 70.27 70.06 68.63 70.25 70.24 70.32 68.83 68.08 66.68 65.26 64.85 64.14 62.72
37.72 34.67 35.58 38.15 42.77 42.39 40.50 38.06 43.15 45.91 45.57 45.65 46.18 46.64 47.17 47.88 48.92 49.61 51.00 50.91 51.12 51.78 53.48 54.87 61.90 70.02 71.56 71.69 71.58 70.81 69.86 70.22 70.35 71.43 72.04 72.71 72.00 70.78 69.20 69.57 70.59 70.28 68.70 67.96 67.39 63.73 63.14 61.75 60.88
33.83 33.37 35.52 36.18 40.65 40.77 37.17 38.97 43.06 44.44 44.32 44.92 45.95 46.71 47.13 47.63 48.60 50.11 50.52 52.08 52.41 51.88 52.66 55.81 57.79 68.38 69.76 70.69 70.73 70.96 70.27 71.35 71.40 70.38 70.37 72.22 72.19 71.32 69.93 69.74 68.95 69.03 68.53 67.18 64.03 63.31 62.32 61.33 62.11
39.70 38.00 36.39 39.30 41.98 40.16 37.49 38.84 42.53 43.27 43.64 44.50 45.69 44.99 46.14 47.53 49.70 50.95 50.97 51.67 52.89 52.92 52.72 55.27 54.71 58.83 69.38 67.70 67.74 67.72 69.21 69.52 70.85 71.73 70.36 70.12 71.54 70.56 70.49 69.64 68.51 68.16 67.28 65.93 63.92 62.23 62.63 62.33 65.60
41.46 37.66 38.37 40.37 42.70 39.63 38.68 39.52 42.36 43.51 42.83 43.08 46.12 46.73 46.44 49.16 50.77 51.77 50.97 50.69 51.13 52.95 52.89 55.68 56.92 57.36 66.89 69.61 68.91 67.83 68.87 69.86 70.42 71.18 71.91 70.48 70.26 70.04 70.44 69.45 68.41 67.37 65.63 64.87 63.64 64.36 63.55 63.22 66.96
40.52 37.68 37.63 37.63 40.61 40.07 38.26 37.41 39.82 43.14 44.52 46.86 47.91 47.90 48.40 48.61 49.61 51.01 51.70 51.26 51.39 51.61 52.13 55.35 58.37 58.23 61.07 69.13 68.51 67.27 67.18 67.38 66.97 69.43 69.79 70.75 70.30 70.24 70.20 69.61 69.23 67.21 66.55 65.83 64.13 64.61 63.99 63.65 66.51
34.92 41.83 40.77 39.39 35.67 29.39 37.92 29.41 36.16 39.58 41.47 44.78 46.07 45.59 47.65 48.93 50.92 52.15 52.47 52.69 50.04 51.26 53.11 54.88 58.96 58.95 60.56 65.00 67.67 66.82 66.43 66.29 67.30 68.44 69.70 70.05 70.38 70.11 69.73 69.45 69.06 68.15 66.62 65.29 66.53 66.23 64.63 64.35 64.54
38.71 42.57 39.71 38.58 34.12 30.65 33.25 28.99 32.53 39.43 39.18 42.82 45.84 47.36 47.99 49.11 50.48 51.42 52.21 53.08 54.98 56.20 51.66 54.23 58.40 59.96 61.30 62.90 66.28 67.42 65.51 67.25 67.12 67.16 68.15 69.97 69.35 70.04 70.11 69.88 68.99 67.62 66.41 66.00 68.34 67.30 66.43 65.51 64.76
43.53 38.94 36.59 34.66 30.92 23.56 30.97 30.46 30.03 35.53 39.75 43.39 47.85 48.82 49.68 49.25 49.37 51.64 53.31 53.04 53.76 56.24 56.38 56.00 57.97 60.43 61.34 63.14 65.57 66.58 66.09 66.96 67.63 66.07 67.15 68.44 69.41 69.41 69.65 70.39 69.74 68.74 67.45 67.40 68.10 68.28 67.39 66.11 65.33
38.66 31.49 22.38 22.74 21.55 22.82 33.58 31.53 32.50 41.11 44.72 45.60 46.53 47.87 48.36 48.85 48.14 49.03 50.74 51.68 53.03 54.52 55.43 57.18 58.44 57.62 60.58 62.41 63.26 66.49 66.89 67.36 67.54 67.27 67.04 67.45 68.60 69.05 69.03 69.32 69.39 69.23 68.15 68.16 69.43 68.19 66.89 66.47 63.62
35.22 31.91 23.25 21.03 21.36 26.97 35.76 28.15 33.76 43.18 46.02 47.56 48.74 48.07 48.43 47.22 46.58 48.48 49.45 50.76 51.63 53.80 54.33 55.15 55.77 57.09 58.43 60.66 61.06 61.94 67.05 68.33 68.17 66.05 65.23 67.22 68.15 68.89 69.32 68.56 68.56 68.78 69.68 68.66 68.13 66.95 64.65 61.13 58.63
35.43 27.34 35.48 25.96 29.12 25.52 28.92 34.09 40.22 42.98 45.03 46.40 46.10 46.32 44.32 45.86 46.15 47.22 49.00 50.24 50.68 51.51 52.86 53.82 55.10 56.62 59.67 59.38 61.12 62.56 63.45 66.78 67.68 66.36 64.69 65.64 67.30 68.47 68.96 68.46 66.40 67.76 69.13 67.99 66.98 64.07 61.28 59.30 56.82
36.89 38.86 29.67 29.67 19.53 21.37 26.58 28.97 30.54 38.06 39.32 43.08 42.59 41.24 42.19 44.27 44.90 45.66 47.32 48.66 50.07 50.58 52.01 54.32 56.83 56.54 57.31 63.49 64.17 64.26 64.09 65.41 65.07 64.13 64.51 63.77 66.28 67.21 68.47 67.92 67.98 69.10 68.59 67.93 62.61 60.64 59.65 57.59 56.80
34.22 31.42 34.66 35.35 31.36 26.45 23.40 25.60 35.77 38.60 38.37 40.21 39.70 41.25 40.64 42.04 43.35 45.15 46.58 47.70 48.70 49.95 51.07 52.36 53.04 56.66 57.50 57.71 59.20 62.49 62.87 63.45 63.72 63.93 63.85 63.48 63.09 63.70 66.51 67.30 67.83 66.21 64.72 63.16 59.77 58.83 58.27 56.81 55.35
37.98 34.97 34.37 23.27 27.29 28.75 29.46 28.73 41.68 39.23 42.41 41.06 41.04 41.31 41.08 41.33 42.33 43.62 44.84 45.91 47.45 48.72 49.83 50.66 51.77 54.56 57.13 57.25 57.50 62.29 60.18 61.10 61.54 63.26 64.04 63.75 62.86 63.72 63.52 66.32 65.42 65.20 63.37 61.92 59.69 57.49 56.23 54.54 52.98

GFSSGP_sfc_wetblb_201.txt.gz
Wetbulb
61.90 57.41 54.33 53.52 45.01 43.27 37.38 40.59 44.80 45.50 51.75 57.05 61.19 60.69 61.19 62.31 62.73 58.04 71.43 72.94 76.06 76.51 76.85 77.49 78.03 77.84 77.27 76.58 76.28 76.22 76.42 76.59 77.00 77.01 76.86 76.59 76.71 76.69 76.61 76.87 77.09 76.97 75.65 74.46 74.13 74.17 74.70 75.26 75.24
60.60 57.02 52.54 46.63 41.15 37.26 37.62 41.68 43.61 45.32 47.76 59.59 60.07 59.78 61.59 61.43 65.76 67.16 69.92 76.04 76.42 76.73 76.60 76.63 77.94 77.61 76.99 76.53 76.17 76.14 76.24 76.57 76.62 76.87 76.71 76.76 76.66 76.69 76.94 76.99 76.94 76.63 75.21 74.54 74.12 74.07 74.03 74.82 75.02
55.18 55.50 48.02 42.11 37.42 35.39 36.94 43.66 44.43 46.85 48.34 48.51 55.22 60.01 60.35 61.30 66.59 66.80 72.58 76.54 76.58 76.34 76.39 76.63 77.83 77.60 76.49 76.23 75.78 76.21 76.19 76.19 76.54 76.48 76.46 76.46 76.56 76.85 76.90 76.91 76.82 76.28 74.96 74.52 74.29 74.18 74.21 74.29 74.35
51.92 48.51 45.20 40.46 37.41 40.88 41.38 43.49 44.47 44.94 47.79 49.20 55.75 55.57 61.01 64.52 66.53 69.40 75.85 76.26 75.61 75.46 76.00 77.27 77.68 77.35 76.80 76.21 75.78 76.04 75.94 76.19 76.42 76.30 76.15 76.40 76.53 76.75 76.67 76.73 76.66 76.59 75.73 75.14 74.84 74.54 74.42 73.73 73.56
46.76 43.27 38.45 36.40 36.62 40.77 42.24 44.06 44.40 44.10 44.80 50.80 53.24 56.01 59.55 66.86 71.82 74.01 75.10 75.30 74.39 74.89 76.34 76.83 77.52 77.22 77.08 76.36 76.01 76.07 76.12 75.79 76.12 76.32 76.10 76.10 76.37 76.44 76.74 76.92 76.93 76.94 76.21 75.27 74.59 74.35 73.98 73.15 72.77
42.09 41.27 35.95 33.76 36.03 42.01 42.14 43.06 44.28 43.80 44.78 47.08 55.47 55.44 56.73 60.40 70.71 73.05 73.94 73.66 75.13 75.01 76.11 76.52 77.40 77.27 76.92 76.68 76.30 76.20 76.00 75.93 75.94 76.24 76.00 76.05 76.07 76.31 76.39 76.67 76.87 76.71 76.36 75.49 74.76 74.49 73.69 72.97 72.11
40.25 36.85 33.43 33.46 36.52 38.71 42.92 43.78 43.43 42.88 44.00 45.80 48.72 50.18 51.83 55.47 66.28 73.66 73.49 74.45 74.67 74.90 74.87 75.57 76.29 76.61 76.97 76.59 76.23 76.25 75.89 75.87 75.65 75.65 75.90 75.79 75.79 75.95 76.15 76.36 76.51 76.34 75.82 75.35 74.88 74.01 73.32 72.45 72.37
40.24 37.60 33.68 33.52 36.85 36.96 43.29 44.61 42.94 43.74 44.92 48.62 49.08 45.09 44.37 49.77 55.57 72.20 73.93 73.68 72.04 73.78 74.32 75.02 75.85 75.92 75.48 75.33 76.41 76.20 76.02 75.86 75.74 75.79 75.86 75.72 75.82 75.90 76.10 75.50 75.87 75.92 75.44 74.92 74.48 73.76 73.02 72.30 72.05
40.36 35.07 31.63 34.51 39.05 41.05 43.11 43.34 45.87 47.70 46.46 47.47 48.39 48.00 50.20 52.56 54.67 68.40 70.10 72.11 72.11 72.89 72.57 73.89 74.98 75.31 75.19 74.94 75.46 75.97 75.90 75.86 75.75 75.57 75.77 74.98 73.89 74.39 74.86 75.19 75.57 75.54 75.29 74.90 74.23 73.34 72.57 72.03 72.00
39.58 35.34 37.04 40.30 40.91 39.05 42.89 42.37 45.63 45.46 45.19 45.53 47.49 49.93 51.26 52.34 51.17 50.92 62.93 69.09 70.85 71.69 71.88 72.56 74.02 74.61 74.62 75.26 74.43 74.39 74.49 74.34 74.25 73.98 73.87 73.96 73.39 73.97 74.71 74.78 75.85 75.66 75.31 74.77 74.05 73.26 72.57 71.95 66.13
39.95 37.89 41.16 42.94 43.35 42.57 42.21 42.30 44.99 43.90 43.89 45.78 45.93 48.43 49.99 50.74 50.37 48.67 49.55 58.10 71.05 72.27 72.58 72.84 73.10 73.74 73.43 73.66 74.20 74.12 74.02 74.24 73.85 73.66 73.67 72.65 72.21 72.80 73.93 72.15 74.04 72.56 74.27 70.99 71.61 70.18 68.93 66.73 64.91
40.99 43.13 42.87 43.96 45.30 43.51 43.25 44.65 44.11 44.18 46.08 48.54 48.58 49.28 49.21 49.30 49.34 49.74 49.90 49.40 52.19 67.17 72.85 72.58 72.66 72.83 72.64 72.39 73.23 72.81 72.75 73.17 73.34 72.72 72.44 71.49 70.96 71.43 72.38 71.72 72.19 70.66 70.52 68.80 67.88 66.86 66.47 65.64 64.71
40.01 42.39 44.49 45.20 44.61 44.35 44.85 43.98 43.38 43.25 47.65 48.65 48.80 49.32 48.42 48.34 48.50 49.08 50.11 50.47 49.34 51.65 63.50 72.41 72.94 72.61 72.73 72.04 73.15 72.44 72.33 72.50 72.15 71.88 72.14 71.35 70.27 70.45 70.73 70.70 71.18 70.30 68.94 67.95 66.28 65.32 64.23 63.46 63.10
42.58 42.97 43.99 44.58 44.22 43.40 42.08 42.82 43.30 45.28 46.15 46.76 47.07 46.92 47.14 47.58 48.10 48.14 48.79 49.11 49.38 50.68 65.48 71.68 72.16 72.16 71.95 72.35 72.40 72.43 72.25 72.88 72.27 71.68 71.82 71.39 69.70 69.55 69.19 69.84 70.05 69.73 68.76 68.13 65.87 64.24 63.45 62.60 63.36
43.03 41.69 43.21 43.36 42.67 40.99 41.88 41.37 42.18 44.46 45.69 45.62 46.08 46.25 47.11 47.65 48.19 48.11 48.73 48.37 48.66 49.34 51.45 69.72 71.83 71.77 70.57 71.81 72.06 72.22 72.45 73.09 72.56 71.71 71.84 71.74 69.41 68.26 68.66 69.66 69.48 69.55 68.71 67.36 65.75 64.34 63.94 63.72 64.31
41.26 37.99 35.34 41.88 42.06 42.87 42.48 35.90 42.16 44.54 44.29 44.50 45.57 45.93 46.65 46.40 46.83 47.54 48.97 49.29 49.84 48.82 50.37 54.27 72.09 72.02 70.63 70.78 71.73 72.13 72.21 72.50 72.57 72.03 71.67 71.47 70.33 68.79 68.27 69.40 69.27 69.51 68.04 67.52 65.61 64.05 63.81 63.98 63.54
36.61 33.00 34.28 37.79 40.81 40.59 39.20 37.23 42.48 44.12 43.72 43.40 43.81 44.14 45.20 45.41 46.39 47.35 47.98 48.70 50.05 50.40 49.40 51.63 63.60 71.24 70.86 70.51 71.47 71.15 71.67 72.02 71.97 71.77 71.61 71.35 70.52 69.63 68.58 69.16 69.42 69.02 68.08 67.32 66.36 63.96 63.70 63.19 61.48
33.36 31.55 33.69 34.45 39.10 39.67 38.41 38.11 40.20 43.99 43.17 43.18 43.68 44.25 44.92 46.60 48.89 50.10 50.53 51.33 48.92 49.67 49.34 50.57 53.26 67.83 71.26 70.99 70.38 68.37 67.86 68.15 68.31 69.79 71.34 72.02 71.75 70.26 68.99 68.69 69.37 68.94 67.79 66.53 65.71 63.89 62.06 62.01 61.12
38.41 34.74 34.59 37.36 41.05 38.16 37.04 38.18 38.41 42.62 42.39 42.41 42.12 45.75 46.63 47.26 50.76 52.05 52.56 51.86 49.46 49.20 49.74 49.31 51.63 54.85 68.28 68.60 68.40 68.17 68.04 68.33 69.19 69.39 70.53 70.63 72.05 71.44 69.40 68.76 68.38 68.80 68.57 67.34 65.59 63.61 62.71 61.04 62.89
38.80 35.32 34.54 38.24 41.44 39.16 38.12 38.55 39.96 41.75 42.06 41.74 44.53 46.03 46.36 47.35 49.41 51.68 52.40 50.28 49.90 49.41 49.35 50.09 51.50 53.52 65.55 68.61 69.05 67.86 69.17 69.02 69.94 70.30 70.11 69.81 71.02 71.19 70.55 69.51 68.56 67.15 68.13 67.07 63.90 62.50 60.99 60.67 65.24
36.66 34.64 35.09 35.34 38.67 39.07 36.98 36.70 37.98 41.07 42.08 45.35 45.81 46.53 46.76 47.27 47.39 50.23 52.07 51.75 52.01 53.99 53.31 50.15 51.02 53.87 60.07 67.11 67.07 65.55 66.32 65.46 65.63 66.46 67.97 69.89 69.97 70.05 69.59 69.74 68.90 67.99 67.67 66.67 63.83 62.92 62.20 62.11 64.39
33.67 39.78 38.92 37.77 33.93 28.30 36.18 28.61 33.32 36.07 39.60 42.73 44.54 45.10 45.82 46.84 48.60 49.90 51.43 51.41 51.86 53.73 55.40 52.09 50.58 53.93 55.87 66.40 66.88 66.46 66.11 65.27 65.55 67.48 68.80 69.12 70.44 69.88 69.48 69.61 69.17 68.19 67.69 66.85 64.41 64.38 63.10 63.75 64.03
37.10 40.75 37.92 37.06 31.93 29.37 30.98 25.50 30.95 37.00 37.40 40.43 43.80 47.97 47.31 47.89 48.10 49.13 50.09 51.22 52.53 54.26 54.09 55.21 54.57 53.87 55.76 57.47 65.75 65.83 63.90 64.73 64.64 64.90 65.23 66.93 68.67 69.82 69.82 69.50 68.75 68.63 67.32 65.69 65.37 64.54 64.52 64.26 64.30
42.28 36.77 34.89 31.62 28.82 21.65 28.36 28.03 28.13 33.00 38.39 41.02 45.59 46.84 48.89 48.69 48.59 49.04 49.76 50.16 50.80 52.08 52.83 53.66 54.22 55.98 57.38 57.82 59.81 63.78 63.57 63.22 63.32 63.07 64.67 65.51 67.45 69.07 69.31 69.80 68.85 68.24 67.48 65.82 66.87 66.36 65.91 65.15 64.43
37.93 30.12 21.08 20.98 19.78 21.65 31.07 29.31 30.98 36.93 42.39 43.67 45.18 46.86 47.69 48.90 47.71 47.34 47.64 48.07 49.18 49.72 50.22 51.56 52.56 53.38 56.14 58.64 60.22 63.28 63.01 63.56 63.48 63.81 64.89 65.10 65.75 68.22 68.65 68.78 68.44 68.69 67.97 67.52 67.04 66.19 65.54 65.37 64.67
33.18 31.01 22.28 16.74 18.66 23.52 32.08 26.82 31.87 40.78 43.49 44.88 46.34 46.50 45.29 45.60 45.46 46.23 46.62 47.00 47.76 48.90 49.36 49.80 50.82 52.90 55.69 56.79 59.13 61.68 63.72 64.08 63.28 64.02 64.89 65.19 66.00 67.52 67.74 68.28 69.18 69.07 68.85 67.99 68.01 66.65 65.75 65.63 62.38
33.81 26.78 32.92 23.99 26.23 26.55 27.56 32.32 37.27 41.18 42.35 43.84 43.68 43.79 42.01 43.08 43.72 43.30 44.77 46.11 46.69 47.30 48.23 49.05 49.80 51.98 55.24 56.90 58.46 59.41 60.70 63.05 64.43 63.47 63.62 63.09 64.79 66.54 67.63 68.67 68.82 67.90 65.57 66.19 67.31 66.04 61.34 59.32 58.12
36.12 37.72 25.76 26.33 20.56 22.70 25.45 27.48 29.43 34.75 37.70 39.91 41.20 40.25 40.40 41.31 41.81 42.92 43.86 44.65 45.90 46.39 47.27 48.89 49.33 50.47 53.78 56.49 58.83 61.22 61.92 64.61 66.31 63.53 63.10 63.34 64.24 64.53 66.88 67.50 67.70 66.44 66.94 66.11 66.17 63.53 58.82 57.02 56.24
33.36 30.13 32.38 34.06 33.78 25.16 23.17 25.37 33.64 37.63 40.05 38.03 40.27 40.25 39.74 39.83 40.26 41.47 42.95 45.33 45.51 46.02 46.04 47.12 48.81 49.71 52.20 56.26 56.83 58.77 62.00 62.88 64.01 63.55 63.01 62.71 62.47 64.24 67.02 67.38 66.17 65.90 66.05 64.71 60.29 58.72 56.98 54.96 53.86
36.83 33.80 32.75 23.28 25.04 26.96 29.97 29.02 40.74 39.00 39.55 41.19 41.27 41.01 40.39 40.39 40.13 42.10 44.36 44.38 44.39 44.65 45.47 46.03 48.31 48.98 51.13 55.41 56.56 58.52 59.18 58.48 59.11 60.70 61.24 62.64 61.76 64.08 66.33 66.15 65.78 63.85 64.86 60.92 58.31 56.78 55.94 53.73 52.33

GFSSGP_sfc_wetblb_207.txt.gz
Wetbulb
63.75 60.67 60.23 58.14 50.31 49.63 45.63 45.86 48.01 48.17 57.28 61.92 65.92 63.95 64.90 66.63 64.59 62.14 75.26 76.03 77.29 77.45 77.93 77.37 77.46 77.34 77.11 77.21 77.41 77.31 77.16 76.96 76.81 76.51 76.64 76.48 76.81 76.93 77.03 76.86 77.11 77.37 76.45 76.55 76.62 76.54 76.27 75.88 76.01
60.25 59.08 58.00 54.52 48.74 46.37 45.45 47.54 47.49 48.38 50.37 52.09 61.14 65.34 66.17 64.61 68.77 70.57 73.19 76.64 78.20 77.82 77.82 77.45 77.31 77.34 76.64 76.81 76.95 77.03 77.13 77.10 77.08 76.86 76.79 76.86 76.91 77.01 76.86 76.91 77.21 77.06 76.01 75.48 76.00 76.16 76.34 76.20 75.95
58.03 56.01 53.83 51.34 47.37 44.92 44.55 47.54 48.14 49.25 51.88 51.28 60.78 63.42 64.55 63.49 68.31 71.41 77.19 77.32 77.74 77.44 77.88 77.78 76.86 77.33 76.51 76.13 76.65 76.77 76.97 76.95 77.03 77.16 77.01 76.96 76.96 76.86 76.76 76.96 77.11 76.70 75.42 74.89 75.42 76.48 76.68 76.17 75.38
56.12 55.48 52.95 46.40 44.17 45.65 46.19 48.22 48.85 51.16 56.85 57.65 59.89 61.21 66.80 71.36 71.27 75.85 77.85 77.86 76.96 76.79 77.72 77.32 76.56 76.36 76.51 76.16 76.06 76.57 76.72 76.85 76.83 77.06 76.88 76.91 76.86 76.78 76.58 76.88 76.89 76.32 75.94 75.56 75.35 75.75 76.03 75.62 74.66
53.06 53.02 48.22 45.69 44.86 46.59 48.37 48.58 49.01 52.04 51.52 59.19 62.07 60.63 63.19 67.24 74.81 76.76 77.08 77.21 76.73 76.42 77.31 77.84 76.71 76.43 76.43 76.06 75.78 75.98 76.49 76.69 76.72 76.80 76.96 76.88 76.78 76.45 76.58 76.71 76.61 76.41 76.12 75.75 74.69 75.02 74.70 74.58 73.87
50.21 50.83 45.99 43.69 43.51 46.03 48.85 49.64 49.73 50.35 51.91 53.23 58.78 61.40 59.54 62.63 73.27 75.62 76.61 76.98 77.22 76.75 77.36 77.82 77.16 76.51 76.70 76.43 76.20 76.09 76.25 76.48 76.64 76.62 76.75 76.77 76.47 76.45 76.35 76.43 76.58 76.53 76.51 75.90 75.22 74.65 73.90 73.38 73.03
48.38 47.43 43.76 44.02 43.99 46.26 48.04 50.79 49.88 49.26 50.94 50.92 51.31 52.97 53.30 55.76 65.58 75.97 76.40 77.06 77.02 77.44 77.23 77.48 77.66 77.53 76.68 76.34 76.15 76.05 75.92 75.97 76.12 76.10 76.11 76.28 76.31 76.24 76.42 76.52 76.67 76.67 76.43 75.93 75.38 74.38 73.38 72.56 72.16
47.90 47.90 42.86 44.10 44.18 44.23 49.34 50.22 50.55 50.35 50.26 53.17 52.87 49.69 50.91 55.45 67.70 75.65 76.35 76.70 76.81 76.85 76.89 77.29 77.24 77.35 76.59 76.92 76.14 76.03 75.85 75.72 75.71 75.67 75.67 75.77 76.08 76.08 76.44 75.61 76.20 76.42 75.89 75.52 74.93 74.26 73.06 72.24 71.71
47.13 46.14 43.83 44.11 45.14 46.54 50.22 49.37 52.03 51.98 51.08 51.73 52.54 52.70 54.52 56.35 60.16 69.88 72.46 74.63 76.83 76.30 76.72 76.93 76.29 76.12 76.79 76.85 76.32 76.13 75.70 75.44 75.67 75.58 75.63 74.91 74.33 74.97 75.17 74.68 75.92 76.17 75.77 75.20 74.43 73.76 72.94 71.87 71.18
48.97 46.99 44.57 46.58 48.04 48.07 49.40 48.97 49.82 49.74 49.85 50.16 51.76 53.72 54.45 55.75 56.53 56.71 59.08 65.89 70.84 74.02 76.58 76.99 76.68 76.02 75.69 75.55 76.59 75.84 76.08 75.51 75.14 74.94 75.14 73.84 73.75 74.27 73.66 74.43 75.06 75.69 75.30 75.03 74.45 73.61 72.34 71.34 70.46
48.42 46.36 47.07 47.77 49.31 49.47 49.07 48.66 49.73 48.79 47.78 49.12 49.34 51.66 53.43 54.50 55.72 55.16 54.91 56.32 57.49 65.54 74.30 76.86 77.22 76.56 75.79 75.00 75.93 75.65 75.58 75.04 75.40 75.25 75.14 74.76 73.72 73.61 73.56 73.35 74.05 74.57 74.65 73.98 74.12 73.93 72.28 71.04 70.28
47.11 48.27 48.72 49.37 49.47 48.73 48.89 49.38 48.13 49.21 49.56 50.70 50.89 52.08 52.85 54.16 54.88 55.16 55.51 55.23 56.16 57.50 59.85 70.60 76.98 77.25 75.99 75.30 75.17 75.95 74.33 75.34 74.76 74.79 75.24 74.18 73.19 72.94 72.75 72.70 73.09 73.95 73.67 73.56 74.22 73.39 72.27 71.35 70.17
48.38 48.69 49.05 49.60 49.03 48.60 49.43 47.83 47.67 48.81 50.48 50.78 51.70 52.79 52.91 53.73 54.89 55.67 56.24 57.36 57.71 57.64 58.67 60.40 66.52 76.29 76.56 74.38 75.70 76.29 75.28 74.79 75.39 74.79 75.21 74.50 73.00 72.41 72.63 72.55 72.68 72.93 73.37 73.37 73.37 72.70 71.84 70.68 69.55
48.48 48.46 48.96 49.32 49.12 48.73 47.14 47.35 48.08 49.64 50.38 51.51 52.20 52.79 53.13 53.12 53.50 55.00 56.67 57.23 58.91 58.95 59.50 60.17 60.79 69.39 75.68 74.10 76.30 76.45 75.77 76.01 75.64 75.45 75.39 74.66 74.13 72.76 72.06 72.14 72.00 72.59 73.10 73.10 73.21 72.54 71.56 70.61 69.41
48.44 46.78 47.80 48.87 48.41 47.37 47.18 45.78 46.94 49.16 49.78 50.54 51.39 52.33 52.49 53.13 54.22 55.70 57.09 57.97 59.00 59.61 60.49 60.14 61.11 64.79 71.82 74.40 76.10 76.42 76.33 76.12 75.73 75.51 75.68 74.85 74.13 72.90 71.28 71.98 71.60 72.28 72.88 73.39 73.51 73.03 72.29 70.93 69.88
45.74 45.68 43.03 48.00 47.41 46.95 47.63 43.32 48.75 49.22 49.47 50.13 51.05 51.27 51.14 54.35 56.00 57.25 58.27 58.97 60.21 59.63 59.52 60.96 60.28 60.60 69.42 73.30 74.52 75.71 76.04 76.09 75.82 75.59 75.09 74.57 74.51 73.11 70.77 72.40 71.71 72.34 72.66 72.67 72.37 72.02 71.17 70.87 70.21
44.88 41.06 42.65 44.31 47.96 46.23 45.84 44.08 48.83 50.03 49.67 50.01 51.37 50.46 52.71 54.64 56.62 57.93 58.53 59.21 59.74 59.94 60.20 60.53 60.96 60.00 63.29 72.70 73.34 75.19 75.60 74.82 75.76 75.62 74.20 74.11 74.02 72.98 70.66 73.27 72.36 72.99 71.97 71.82 71.64 71.24 71.10 70.14 70.61
40.84 41.25 42.27 42.20 45.85 45.46 44.94 44.67 47.41 49.11 49.12 49.23 50.58 49.95 52.83 53.39 55.27 57.19 58.08 58.56 58.84 59.32 60.31 61.03 61.63 60.88 60.75 65.26 73.02 72.89 73.48 73.93 73.90 74.45 73.92 73.46 73.81 72.91 71.05 71.46 72.69 72.80 71.68 71.08 71.24 71.37 71.55 71.28 71.44
43.93 41.86 41.67 44.16 45.86 43.72 43.58 43.47 45.47 47.44 47.34 47.84 49.55 50.84 52.31 53.12 55.63 56.75 56.92 57.36 57.61 58.25 58.26 59.46 60.46 62.63 58.84 62.36 67.89 69.10 68.95 71.49 72.81 73.89 75.10 75.24 74.97 74.15 72.80 71.02 70.29 71.94 71.77 71.57 72.05 71.93 71.70 70.57 70.58
43.34 42.15 42.50 43.53 44.85 43.93 43.56 42.65 45.19 46.53 47.08 47.65 48.52 51.13 52.05 53.19 54.43 55.20 55.76 55.95 56.05 56.33 56.75 57.77 58.78 61.20 61.96 58.96 67.17 69.56 70.43 71.56 72.97 73.14 74.33 74.58 74.58 74.42 73.11 72.96 70.79 71.05 70.41 71.88 71.92 71.82 70.42 70.92 70.54
43.10 41.73 40.73 40.13 43.71 44.44 41.89 40.52 41.76 45.31 47.10 48.69 50.88 52.04 52.48 52.73 52.46 53.52 54.12 54.58 54.88 54.91 55.24 55.89 57.43 59.11 61.51 63.26 61.67 70.23 71.55 71.75 71.11 71.81 71.72 73.16 74.49 74.98 74.41 73.98 73.42 71.78 71.44 69.35 71.53 71.62 71.40 69.20 70.00
40.41 43.62 42.17 41.57 40.46 35.84 41.11 33.66 39.83 43.24 45.76 47.84 49.81 50.97 52.07 52.56 52.80 53.06 53.82 54.01 54.07 53.81 54.64 54.71 55.98 56.63 58.22 61.75 62.90 64.27 66.30 66.74 68.99 70.34 71.45 72.81 73.95 74.49 75.01 74.68 73.48 73.08 72.05 71.14 69.89 70.09 72.09 72.08 69.20
42.15 43.86 42.87 41.86 39.13 36.87 37.27 35.18 39.78 41.86 42.63 45.34 48.90 50.78 52.47 52.42 52.48 52.60 52.42 52.81 53.12 54.13 53.77 53.98 55.40 56.17 56.49 58.63 60.68 62.37 64.33 66.49 68.29 69.72 71.62 73.48 73.58 73.76 73.90 74.45 73.51 72.93 72.56 72.26 71.53 69.18 69.79 71.36 71.07
44.17 43.10 42.82 38.21 37.77 32.82 36.04 36.34 37.27 40.48 42.08 45.81 49.05 51.12 51.90 52.14 52.50 52.68 53.15 53.57 53.28 53.88 53.50 53.76 54.31 54.37 55.36 56.11 57.87 59.71 62.16 64.10 66.28 68.29 68.82 69.74 70.92 72.22 72.95 73.66 73.63 73.16 73.04 72.29 71.97 69.27 68.92 70.68 72.12
43.72 40.95 33.72 31.84 32.31 31.35 37.72 35.26 38.22 43.61 45.26 46.55 47.77 50.14 52.09 52.64 51.57 51.57 51.76 51.91 52.34 52.27 52.37 52.71 53.16 53.49 54.66 54.47 55.67 57.31 59.35 63.37 65.03 66.21 67.75 69.09 69.46 69.94 71.10 72.61 72.26 72.10 72.78 72.44 72.51 70.59 70.47 67.87 70.54
41.01 39.82 33.87 26.04 28.05 31.84 38.20 32.07 38.77 45.97 47.65 48.36 49.61 50.74 51.97 52.01 51.59 51.18 51.33 51.86 51.63 51.29 52.05 50.70 51.41 51.78 52.97 53.74 54.12 56.29 58.82 61.30 64.09 65.98 66.10 67.46 68.45 69.67 72.09 71.76 72.81 72.16 71.67 71.63 72.07 70.77 68.88 70.13 66.72
39.23 36.90 39.82 35.32 34.08 30.85 34.97 37.80 42.93 46.09 46.07 47.60 49.14 48.19 49.51 50.91 51.30 50.81 51.31 51.79 51.40 51.40 51.87 51.02 51.01 51.37 52.66 53.26 53.93 55.71 57.28 60.25 63.12 66.03 67.59 67.13 69.29 69.37 70.95 71.07 71.06 71.09 70.05 70.25 70.26 67.26 68.21 68.09 65.62
42.27 43.74 35.30 36.61 26.99 26.22 33.53 34.64 35.80 41.19 43.57 45.84 46.49 47.46 48.75 50.17 50.05 50.11 51.07 51.41 51.27 51.54 51.05 50.76 51.23 50.68 51.92 53.04 53.67 54.36 55.63 58.44 62.76 65.87 67.39 68.02 68.98 70.32 70.48 70.86 71.26 71.08 69.92 70.56 68.97 66.65 67.15 66.64 65.35
39.51 38.02 38.29 37.77 36.08 29.53 28.09 33.59 42.91 42.82 44.74 45.09 46.87 47.74 48.69 48.87 49.12 50.01 50.16 50.83 50.70 50.52 50.09 50.49 50.66 50.44 51.01 52.31 52.86 53.58 54.84 56.49 61.76 64.68 67.48 68.23 69.35 69.85 69.93 70.50 70.41 70.10 69.87 70.67 67.06 65.67 66.79 64.02 62.71
42.45 40.33 40.47 34.74 32.14 33.06 33.76 33.26 45.72 46.12 46.46 46.56 47.10 48.28 48.49 48.93 49.60 49.92 49.71 49.21 48.71 49.04 49.28 49.46 50.18 49.96 50.77 51.81 52.16 52.73 54.33 55.53 59.17 64.01 66.44 68.61 69.09 69.32 69.52 69.97 69.87 69.83 69.20 70.21 66.75 63.81 63.60 61.49 62.55

GFSSGP_sfc_wetblb_210.txt.gz
Wetbulb
67.10 63.96 63.56 63.16 53.97 52.84 50.56 50.48 52.77 53.85 61.05 61.87 68.83 68.16 67.90 69.56 67.73 64.37 77.40 77.84 78.52 78.40 79.01 77.64 77.79 77.74 77.59 77.94 77.97 77.06 76.51 76.18 76.30 76.66 76.98 77.03 77.13 77.28 77.54 77.44 77.56 77.25 77.28 77.59 77.40 76.90 76.64 76.44 76.32
63.36 62.12 61.92 59.37 51.54 50.42 49.90 52.37 51.68 55.10 58.18 60.18 66.84 68.65 68.51 66.68 71.95 73.83 76.30 78.56 79.02 78.95 78.96 77.79 77.28 77.54 77.23 77.46 77.63 77.41 76.96 76.71 76.61 76.83 77.06 76.98 77.23 77.26 77.41 77.28 77.74 77.37 76.89 76.77 76.82 76.75 76.36 76.22 76.15
62.69 60.72 57.87 53.94 52.35 50.74 50.06 52.52 53.71 55.38 59.19 58.21 64.97 67.73 67.49 66.62 72.21 75.49 79.06 79.10 79.67 79.47 79.01 78.79 77.33 77.06 76.73 76.88 77.06 77.43 77.36 77.43 77.18 77.11 77.08 77.28 77.41 77.16 77.01 77.16 77.51 76.76 76.09 76.26 76.41 76.79 76.86 76.42 76.12
57.82 58.56 57.26 52.26 48.74 49.53 50.86 53.00 54.88 56.08 60.29 61.85 64.83 63.94 69.40 71.71 73.10 77.37 79.36 79.38 78.94 79.08 79.09 77.37 77.70 77.23 76.68 76.43 76.78 77.00 77.43 77.48 77.38 77.39 77.23 77.33 77.28 77.03 76.98 77.11 77.24 76.64 76.22 75.89 76.36 76.97 76.55 75.93 75.34
58.50 56.09 52.35 49.12 47.35 49.75 51.48 53.44 55.69 56.49 59.22 61.93 63.48 62.70 62.57 68.66 72.81 76.31 78.90 79.08 78.11 77.80 78.71 78.55 77.03 76.83 76.51 76.25 76.33 76.76 77.00 77.20 77.30 77.41 77.23 77.28 77.05 76.95 77.03 77.18 77.06 76.64 76.25 75.85 75.71 75.99 76.13 75.52 73.92
53.81 55.19 49.37 47.83 47.46 49.10 52.31 53.81 55.31 56.78 58.99 60.91 62.21 60.74 58.86 62.16 68.43 72.04 76.93 79.02 78.86 78.04 78.24 79.12 76.97 76.43 76.48 76.05 76.13 76.45 76.87 76.84 77.10 77.28 77.10 77.05 76.95 76.90 76.95 76.96 76.88 76.65 76.42 75.86 75.09 74.96 74.84 74.29 73.28
52.29 51.59 50.08 48.81 48.70 49.44 50.73 53.93 53.34 54.57 55.54 54.53 58.78 55.75 57.22 58.32 66.81 70.01 72.75 76.92 78.53 79.16 78.59 79.18 79.06 77.88 76.30 76.23 76.12 75.97 76.16 76.63 76.74 76.81 76.76 76.84 76.69 76.72 76.73 76.53 76.76 76.86 76.53 76.00 75.20 74.34 73.96 73.29 72.17
55.12 54.47 48.27 49.07 48.10 48.10 51.99 52.96 53.91 53.60 52.96 56.27 56.65 53.71 54.44 58.04 63.98 67.84 68.90 71.98 73.56 76.54 77.30 79.02 79.09 79.09 78.55 77.85 76.12 75.97 75.79 76.04 76.33 76.43 76.43 76.60 76.46 76.64 76.50 76.14 76.44 76.80 76.35 75.68 74.74 73.85 72.97 72.19 71.81
53.86 49.93 47.76 47.67 48.28 49.66 52.87 51.83 54.35 54.74 53.47 54.35 55.26 55.13 56.54 58.48 59.99 61.38 64.68 66.79 70.38 72.26 74.60 76.53 77.16 78.51 78.87 78.42 78.31 76.15 75.77 75.72 75.76 75.70 75.86 76.17 75.66 76.21 75.84 74.76 76.28 76.65 76.15 75.53 74.70 73.87 72.96 71.89 71.23
54.19 52.82 48.13 50.80 51.61 50.93 51.80 52.03 52.37 52.31 52.31 52.84 53.94 56.19 57.46 58.64 58.87 58.83 58.80 59.10 62.15 66.85 69.58 74.22 76.27 77.47 78.38 77.86 78.46 78.24 77.54 76.63 75.75 75.33 75.67 75.15 74.04 74.60 74.22 75.01 76.19 76.35 76.10 75.43 74.80 74.02 72.83 71.92 70.82
52.60 49.71 50.75 50.96 51.94 52.34 51.21 51.02 52.68 51.57 50.70 52.29 52.05 54.01 55.83 56.94 58.37 57.82 57.55 58.38 58.82 60.15 62.04 68.32 74.19 78.00 78.27 77.01 77.74 78.08 77.88 77.49 76.70 76.26 76.39 75.39 73.48 74.01 73.75 73.90 74.91 75.26 75.18 74.55 74.50 74.41 73.54 72.45 71.89
50.08 51.35 51.61 51.91 52.41 51.89 50.84 51.68 50.33 51.51 52.26 53.43 53.95 54.90 55.34 55.81 57.04 58.14 58.75 58.68 59.06 60.26 61.44 62.49 64.47 73.35 76.62 76.85 76.68 77.44 77.13 77.70 77.09 76.71 76.93 75.89 74.21 74.03 73.42 72.21 72.73 73.12 72.95 73.01 73.27 73.01 73.76 73.52 72.76
50.22 50.72 51.65 52.16 51.86 51.90 52.25 50.24 50.59 51.05 53.07 54.18 54.52 55.38 55.26 55.80 56.51 57.80 59.25 60.84 61.52 61.46 62.51 63.09 64.85 66.08 71.69 77.05 76.93 77.14 76.69 77.02 77.79 77.38 77.16 76.16 74.57 74.09 73.78 73.12 72.86 72.68 72.71 72.54 72.60 72.88 73.35 73.17 72.02
51.36 50.97 50.89 51.64 51.49 51.80 50.26 50.10 50.86 52.04 53.44 53.64 54.22 54.73 55.54 55.93 56.52 57.76 58.92 60.39 62.64 63.80 64.49 65.24 65.50 66.96 66.66 74.07 76.51 76.82 76.55 76.91 77.57 77.71 77.38 76.98 75.70 74.75 73.41 73.86 73.38 72.95 73.05 72.77 72.63 72.68 72.90 72.82 71.70
51.47 49.18 50.27 50.70 50.93 50.23 51.29 48.97 49.13 52.49 53.13 52.79 53.65 54.99 55.34 56.16 57.13 58.23 60.16 61.49 63.05 64.43 65.64 65.99 66.22 66.01 66.91 69.10 72.99 75.04 74.97 75.97 76.80 76.92 77.73 77.14 76.65 75.93 75.44 74.10 73.64 73.63 73.64 73.38 73.01 73.14 73.51 72.50 71.96
48.60 49.17 46.19 50.06 50.32 50.18 50.11 45.17 50.12 52.76 52.38 52.11 53.35 53.94 54.50 55.91 58.21 60.05 61.01 62.38 64.10 64.48 65.06 66.45 66.65 66.95 66.70 67.03 70.63 72.58 73.17 75.29 75.67 76.05 76.81 77.06 76.71 76.15 75.15 74.19 73.75 74.44 73.84 73.20 72.57 72.43 71.84 71.58 70.93
48.44 44.65 44.91 46.17 50.29 49.49 48.72 46.34 50.32 52.77 52.47 51.85 52.90 53.34 53.54 55.93 57.75 60.52 61.02 61.83 62.51 63.36 63.42 64.11 65.77 66.47 66.95 66.88 68.30 72.45 74.99 74.42 75.10 75.07 75.33 76.92 75.46 74.96 74.78 74.84 74.09 75.04 73.56 72.97 72.61 72.24 72.08 71.03 70.92
44.04 44.55 45.64 45.48 48.88 49.34 47.72 47.29 49.71 51.43 50.97 50.95 51.52 52.09 53.04 55.33 57.24 59.85 60.34 60.91 61.51 61.50 61.59 62.11 62.24 64.17 67.17 65.70 66.17 68.71 70.49 73.39 75.43 75.08 74.65 76.48 76.68 75.63 75.10 74.49 74.60 73.06 73.13 72.97 72.64 73.12 72.46 71.71 71.14
47.69 46.43 45.50 48.06 49.99 47.39 47.23 47.25 48.91 50.65 50.55 49.87 50.59 51.84 53.87 55.29 58.12 59.28 59.79 60.17 60.37 61.02 61.03 61.32 61.44 62.30 62.44 64.50 63.52 65.80 67.75 70.92 72.70 75.21 76.14 75.76 76.32 75.71 75.31 73.26 75.01 74.35 70.89 73.09 73.66 72.74 72.41 71.33 72.53
47.75 46.36 46.14 48.19 48.40 48.07 47.24 46.72 49.10 49.59 49.55 50.11 50.66 51.44 53.97 55.63 57.36 58.19 59.24 59.04 59.05 59.89 60.13 60.46 60.79 61.36 61.39 60.91 65.51 64.65 68.74 69.57 70.26 72.65 75.42 75.20 75.73 75.85 74.75 72.92 74.55 74.89 73.28 70.77 70.86 73.15 71.25 71.53 72.48
47.40 45.82 45.80 44.69 47.15 48.54 47.04 44.77 45.84 47.93 49.68 50.63 51.89 53.59 54.66 55.17 55.78 56.99 57.78 58.36 58.74 58.95 59.15 59.49 60.25 60.77 60.99 61.81 61.60 65.40 66.67 70.52 70.39 71.25 72.38 74.18 75.37 76.21 75.61 74.10 75.40 75.40 73.85 72.20 70.72 70.16 71.82 70.33 71.70
44.33 47.80 45.98 44.97 44.22 40.30 46.56 37.81 44.48 46.63 47.26 49.63 50.85 52.70 54.49 55.65 56.63 56.67 57.08 57.92 57.31 58.16 59.00 59.32 60.19 60.69 60.73 61.41 61.42 62.53 63.97 64.69 67.81 70.07 70.50 73.05 74.56 75.17 75.96 76.23 75.63 75.85 74.67 74.07 73.07 72.79 69.15 68.86 70.70
45.53 47.62 46.35 45.43 43.73 42.95 42.81 39.73 43.95 46.22 45.50 47.80 49.84 52.86 54.61 56.02 56.27 56.13 56.54 57.38 57.33 58.16 58.47 58.99 59.66 60.29 60.69 60.70 60.72 59.95 61.24 63.14 66.15 68.04 72.44 75.01 75.78 74.45 74.68 75.67 75.42 74.96 74.93 74.66 74.43 73.50 71.94 71.54 67.34
48.15 46.59 46.59 46.32 43.29 37.56 42.14 40.70 40.75 44.01 45.51 46.92 50.59 52.26 53.80 55.07 56.09 56.73 57.24 57.39 57.50 58.43 58.62 58.84 59.01 58.86 59.71 59.63 59.90 60.21 60.34 61.45 62.77 66.07 67.69 69.32 70.49 72.15 74.99 74.66 75.61 74.54 74.98 74.26 74.21 73.91 73.78 73.23 71.79
47.00 45.06 38.40 36.56 37.26 36.97 42.50 39.65 42.39 46.75 48.02 48.88 49.40 51.01 52.98 54.75 55.53 55.66 55.69 56.06 56.79 57.31 57.80 57.99 58.24 57.40 57.99 57.94 58.88 59.33 59.89 61.09 62.12 65.41 66.60 68.73 68.42 69.39 73.77 75.18 75.79 74.15 73.83 74.30 74.60 74.01 73.50 72.96 72.24
45.02 43.95 38.07 29.95 33.35 36.41 42.44 37.44 43.25 47.94 49.84 51.18 51.61 52.65 53.34 52.99 54.64 54.95 55.59 56.04 56.33 56.88 57.16 57.28 56.76 56.10 57.01 56.80 57.84 59.00 59.76 59.35 60.58 63.87 66.25 67.54 67.88 69.79 74.81 73.79 74.02 74.16 74.27 74.35 74.68 72.85 72.09 73.40 71.97
44.27 40.79 45.59 38.95 39.91 36.46 40.05 43.25 46.87 48.75 48.36 49.55 50.41 51.78 52.42 52.86 53.99 54.62 55.28 55.99 56.46 56.56 56.75 56.24 55.86 55.78 56.44 56.03 56.99 58.42 58.95 59.53 59.63 61.83 66.05 67.14 69.89 69.49 71.53 72.84 73.06 73.47 74.18 74.18 73.50 71.43 72.00 71.74 72.10
46.06 47.28 39.42 40.21 30.16 30.36 37.40 38.95 39.68 45.09 45.66 47.71 48.84 49.83 51.69 53.06 54.02 54.55 55.16 55.94 56.30 56.26 56.09 55.91 55.56 55.29 55.83 56.25 56.52 57.07 57.94 58.44 59.57 61.17 63.86 67.38 69.47 70.46 70.39 71.47 72.76 73.22 72.81 71.95 72.48 71.44 72.36 71.35 70.03
43.69 42.08 42.81 42.29 40.04 33.06 31.99 37.22 46.55 46.09 47.96 47.65 49.31 50.71 50.40 51.82 53.25 53.97 54.68 55.58 55.74 55.12 54.26 54.40 54.53 54.69 54.99 55.52 56.03 56.51 57.21 57.97 58.83 59.62 62.06 66.57 69.28 69.98 70.03 70.39 71.03 71.27 71.50 71.74 71.31 71.41 70.55 70.12 68.12
45.90 43.54 43.59 38.93 35.68 39.10 37.53 37.09 48.44 49.03 47.76 49.38 49.72 50.77 50.63 52.83 53.25 53.83 54.22 54.49 53.99 52.93 53.10 53.48 54.15 54.02 54.67 54.92 55.16 55.84 56.90 57.51 57.66 59.21 62.00 66.73 67.92 70.22 70.32 70.14 70.32 70.48 70.67 71.26 70.77 70.21 69.13 68.77 66.25

GFSSGP_sfc_wetblb_216.txt.gz
Wetbulb
67.84 65.48 66.67 62.30 54.32 53.82 51.29 53.47 56.36 56.29 59.87 63.09 66.47 64.14 59.26 61.37 57.37 55.83 69.16 77.20 77.82 76.30 75.91 76.26 78.46 78.61 78.48 78.38 77.70 77.22 76.66 76.58 76.81 76.89 76.41 76.66 77.24 77.34 77.49 77.49 77.75 78.15 77.60 77.23 76.86 76.68 76.56 76.18 76.39
63.09 64.24 61.92 58.44 52.55 49.86 50.70 55.18 54.13 57.59 61.11 62.72 67.78 64.31 61.45 57.57 66.99 69.26 72.41 77.77 78.11 76.58 76.58 75.80 78.28 78.28 78.15 78.10 77.57 76.96 76.76 76.64 76.96 77.06 76.76 76.64 77.19 77.34 77.29 77.57 77.52 77.79 77.54 77.11 76.77 76.50 76.52 76.53 76.42
63.97 63.42 57.73 56.45 53.28 49.98 50.59 54.58 55.33 57.97 61.40 61.43 65.84 68.51 68.35 68.15 72.34 74.16 77.02 77.65 77.93 76.44 76.71 76.73 77.92 78.02 77.75 77.47 77.42 77.09 76.89 76.71 77.04 77.09 76.86 76.84 77.24 77.56 77.44 77.62 77.54 77.73 77.06 76.79 76.67 76.84 76.81 76.45 76.09
60.36 59.57 56.41 53.12 50.96 52.42 52.30 54.41 56.51 57.61 60.43 62.32 66.12 63.82 68.78 73.31 73.36 75.25 77.99 77.32 77.13 77.63 76.36 76.82 77.70 77.59 77.55 77.39 77.14 77.24 76.99 77.09 77.09 77.19 77.07 77.19 77.14 77.34 77.34 77.62 77.24 77.17 77.25 77.09 77.12 76.92 76.77 76.28 75.85
59.11 57.18 52.21 52.02 51.21 55.08 54.99 55.18 56.44 57.08 58.95 61.39 63.69 60.76 63.90 70.13 74.87 74.89 75.88 77.18 77.61 77.27 75.01 75.45 77.29 77.09 77.16 77.27 77.24 77.44 77.29 77.21 77.09 77.12 77.09 77.19 77.26 77.13 77.19 77.34 77.09 77.10 77.06 77.09 77.12 77.06 76.78 76.22 75.61
52.80 54.63 48.73 48.33 50.06 54.59 54.55 55.26 55.58 57.33 59.62 61.04 61.08 57.28 61.43 68.17 70.21 73.47 74.88 74.90 78.01 76.67 75.70 75.34 76.81 77.01 76.96 76.99 76.99 77.17 77.31 77.41 77.29 77.34 77.27 77.34 77.26 77.03 77.01 77.22 77.14 76.86 76.67 76.70 76.95 76.99 76.69 75.91 75.02
51.53 50.56 48.44 49.57 50.61 51.74 52.90 54.54 53.75 54.75 56.22 56.07 58.66 56.44 58.09 62.32 66.38 70.03 72.55 73.85 75.09 78.09 76.98 76.03 75.66 76.39 76.86 76.59 76.84 76.99 77.08 77.26 77.33 77.15 77.13 77.13 77.28 76.91 76.93 77.11 77.17 76.71 76.38 76.33 76.41 76.34 76.03 75.41 74.33
53.28 51.53 48.98 49.48 49.35 50.38 53.49 53.69 54.53 54.29 54.04 58.63 59.03 54.70 54.87 59.25 61.85 65.30 69.87 72.30 72.26 76.42 77.50 77.58 76.92 75.51 75.04 74.89 76.54 76.68 76.66 76.86 77.17 77.28 77.08 77.12 77.08 77.01 76.83 76.55 76.66 76.89 76.56 76.31 75.93 75.41 74.96 74.35 73.75
54.54 47.92 47.16 48.89 48.91 51.45 54.19 52.54 54.92 55.65 54.64 55.80 57.32 57.08 58.24 60.30 62.16 61.72 62.14 66.00 69.02 68.88 71.04 75.53 77.30 77.43 77.10 75.48 75.36 76.14 75.88 76.23 76.25 76.58 76.98 76.31 75.27 75.42 74.93 75.28 75.60 76.69 76.66 76.41 75.88 75.16 74.48 74.03 73.61
51.87 48.30 49.78 52.58 52.92 51.47 52.95 52.82 53.77 52.73 53.31 54.01 55.34 57.48 59.23 59.91 60.33 61.53 61.20 59.71 60.42 61.01 63.37 69.95 73.50 73.84 75.15 77.49 75.75 75.23 74.77 74.12 74.05 74.01 75.04 75.17 74.42 74.09 74.76 75.03 75.27 76.41 76.56 76.31 75.83 75.31 74.83 73.86 70.75
53.40 50.15 52.73 52.73 53.40 53.60 51.93 52.01 54.08 51.94 51.14 54.13 54.16 55.14 56.74 58.10 61.52 59.08 59.01 59.66 59.71 61.22 62.66 63.06 69.05 69.34 70.25 71.13 76.47 78.07 77.32 76.16 74.86 74.33 74.23 74.96 73.90 73.35 73.25 73.96 74.01 75.14 76.11 74.21 74.65 74.03 72.95 71.54 70.67
50.78 52.17 52.64 53.26 53.65 52.27 51.41 53.16 51.94 52.32 52.92 55.71 55.74 56.09 56.19 56.39 59.10 60.02 59.56 59.25 60.21 62.08 65.01 64.96 67.29 69.22 71.04 69.70 71.33 73.28 74.14 76.21 76.30 75.74 75.95 75.53 75.37 75.00 73.27 72.65 73.75 73.71 73.76 73.40 72.90 72.06 71.86 71.27 71.16
51.51 52.08 52.56 52.86 52.54 52.33 52.92 51.32 50.85 51.91 54.34 55.95 55.73 55.76 55.54 56.29 57.38 60.35 62.43 65.65 64.05 63.61 65.58 65.89 68.01 71.01 70.60 71.37 70.24 70.26 73.34 73.32 73.83 76.30 76.58 75.82 75.17 73.80 75.17 73.93 74.02 73.64 73.45 73.46 72.30 72.35 71.95 71.62 71.29
53.31 51.83 52.09 52.45 52.69 52.85 51.14 51.31 52.02 52.58 54.76 54.59 54.82 54.88 55.35 55.97 56.78 59.07 61.96 63.47 65.27 66.61 66.57 67.90 67.37 70.21 69.60 70.26 71.31 69.56 69.81 75.38 73.06 73.00 76.83 76.91 75.92 75.81 73.30 75.55 74.14 73.45 72.22 72.31 72.59 71.28 70.91 71.91 71.69
52.75 49.74 51.56 52.07 52.73 51.66 52.81 49.39 49.80 53.31 54.43 53.97 54.20 55.06 55.47 56.32 57.00 57.90 59.89 63.68 64.54 66.14 67.99 67.73 68.07 68.43 69.99 70.38 70.78 69.96 68.88 69.32 73.31 72.25 74.29 76.50 77.08 74.68 75.93 74.79 73.93 73.41 74.01 74.26 71.47 71.79 71.43 71.67 72.55
51.10 51.16 48.19 51.79 52.60 52.63 51.15 45.99 51.40 54.01 53.99 53.30 54.22 54.79 54.94 55.92 56.23 58.50 61.80 63.48 65.59 65.52 66.33 67.43 65.57 66.32 67.28 68.81 70.62 70.15 69.16 68.17 68.38 71.89 71.02 76.19 76.42 76.97 75.93 74.89 74.23 74.12 74.25 73.00 73.08 72.14 69.85 70.97 71.13
51.03 46.96 47.60 48.78 52.71 51.37 50.60 47.88 52.29 54.21 53.38 52.94 53.40 53.94 54.01 54.83 56.74 61.39 61.78 62.41 64.29 64.92 65.45 66.43 67.29 65.12 66.14 67.75 67.74 70.08 70.15 68.58 67.73 69.17 70.79 74.03 76.53 76.76 76.55 74.92 74.67 76.85 75.28 73.70 72.55 72.23 72.07 70.15 70.55
45.83 46.02 47.38 47.26 50.87 51.47 49.88 49.61 52.18 53.23 52.89 52.63 52.79 53.38 53.96 54.34 54.93 61.78 62.06 62.71 63.86 64.56 65.74 66.41 65.93 65.97 67.14 66.13 65.39 64.78 66.52 69.26 67.94 67.68 68.33 70.38 73.70 76.10 76.32 75.32 75.23 75.28 74.86 73.21 73.06 71.61 71.66 71.75 71.04
48.72 47.74 47.11 49.61 52.26 50.78 49.70 49.63 50.67 52.63 52.43 52.12 52.43 53.40 53.98 53.62 57.25 61.44 61.74 61.95 62.91 64.36 64.77 65.80 65.24 66.01 65.38 63.05 61.48 60.55 60.75 61.32 64.81 67.23 68.29 70.54 71.40 74.95 74.71 75.13 74.93 74.62 73.31 73.23 73.69 72.52 69.93 71.04 71.39
48.71 47.33 47.55 50.24 51.62 50.88 49.74 48.30 49.88 51.37 52.39 52.96 52.73 52.37 52.60 53.64 56.60 59.93 61.14 61.98 62.60 63.87 64.12 65.59 65.36 65.91 64.49 63.62 62.98 65.41 62.74 62.08 63.46 68.19 68.77 71.98 72.31 72.35 74.32 73.41 73.30 74.18 73.38 73.69 73.16 72.20 70.26 71.37 70.91
48.57 47.45 47.49 46.68 49.32 49.90 47.58 46.01 48.54 50.93 52.20 52.27 52.16 52.40 53.26 54.18 55.53 58.91 60.39 61.59 61.93 62.51 63.59 63.30 63.79 65.76 65.88 65.65 63.44 63.37 62.41 62.88 61.06 60.01 62.58 66.62 68.85 71.75 70.97 73.16 72.00 72.23 73.60 72.91 72.74 72.46 70.83 68.17 71.52
45.92 50.04 47.79 46.79 45.19 40.74 47.42 39.25 46.53 49.51 50.19 51.21 51.56 52.28 52.90 54.63 56.55 57.35 60.41 60.85 61.39 61.34 62.39 64.02 64.37 64.55 65.56 66.39 62.81 62.68 60.48 59.28 60.77 60.99 60.69 62.74 65.93 68.03 70.36 72.03 73.14 73.55 73.62 71.58 72.10 72.92 71.21 69.64 67.70
47.06 48.90 47.18 46.65 44.82 44.71 44.82 42.10 45.71 50.00 47.28 49.35 51.39 52.30 53.44 54.09 55.48 57.12 57.71 59.13 60.15 61.46 60.90 63.65 64.61 65.59 66.41 66.61 65.91 61.47 60.16 59.76 60.81 60.91 61.63 61.81 62.90 64.63 68.28 66.42 62.60 60.35 72.14 71.81 71.48 72.22 71.79 70.89 69.05
49.91 48.19 47.72 47.30 45.64 40.49 44.23 43.33 43.26 45.95 47.70 49.35 51.45 52.26 52.49 53.25 55.13 57.09 59.11 59.97 60.11 59.30 60.06 58.93 60.37 63.89 66.09 65.73 65.21 63.70 61.63 60.61 59.76 59.94 59.98 61.21 62.17 64.02 68.55 64.41 59.49 61.28 63.66 69.37 70.73 72.44 71.10 70.99 71.00
48.96 45.49 39.22 36.81 37.86 37.15 44.87 42.31 44.26 48.61 49.77 50.72 50.73 51.51 52.94 53.93 54.03 56.04 56.37 56.96 60.20 58.99 59.50 59.78 57.98 63.34 64.71 63.92 63.62 62.48 62.26 61.23 59.31 59.64 59.79 59.33 59.98 61.33 64.50 63.87 58.79 56.78 62.46 70.00 70.97 71.70 71.66 71.40 70.39
45.79 44.73 39.31 32.15 33.98 37.47 43.88 38.32 42.41 50.09 51.17 52.40 53.03 54.12 54.33 54.66 55.08 53.50 53.26 55.38 54.00 56.64 59.69 60.10 61.37 61.90 62.89 62.13 62.87 62.73 61.44 59.08 58.93 59.29 60.86 59.94 59.69 60.49 62.28 63.71 67.65 65.04 66.11 68.85 70.73 71.16 70.20 71.43 71.23
44.95 42.21 46.76 41.42 41.75 37.43 40.59 44.08 48.13 50.18 49.59 50.49 50.66 51.74 52.68 54.20 53.91 53.43 52.82 53.56 52.12 52.77 57.97 59.92 60.60 61.38 61.59 60.91 61.37 60.93 60.17 60.61 59.99 60.19 59.81 60.01 60.66 61.15 62.36 63.71 63.86 68.70 68.14 67.54 68.72 70.57 69.89 71.28 70.69
47.49 48.96 41.66 42.82 32.78 31.07 37.71 39.79 40.92 46.15 47.03 48.50 48.02 49.62 51.54 53.74 53.15 53.84 53.36 53.17 53.09 52.64 56.33 58.15 59.73 59.33 59.96 59.56 59.65 58.81 59.06 59.20 59.04 59.19 58.83 59.40 60.14 60.88 61.01 61.75 63.17 67.23 67.70 61.96 60.27 67.68 69.31 69.71 70.69
44.74 43.60 45.09 44.80 41.39 33.90 32.44 36.63 47.29 47.43 48.45 48.71 49.09 50.33 51.19 52.28 52.05 52.21 53.05 54.45 54.53 53.36 55.49 57.43 57.79 57.15 57.17 57.70 58.25 58.28 58.44 58.46 58.10 57.28 57.71 58.09 59.30 60.00 60.09 61.18 62.49 65.82 67.60 64.67 63.98 67.28 69.62 67.99 68.84
47.39 44.97 44.94 38.73 35.60 39.98 37.70 37.09 48.82 49.21 49.23 49.39 49.39 50.11 50.45 51.36 52.63 53.36 53.32 54.14 53.79 53.42 55.65 55.28 56.74 55.49 55.62 56.58 56.66 57.21 57.07 56.96 56.28 56.44 57.39 58.90 58.94 59.69 59.72 60.77 62.25 63.95 67.09 68.06 67.06 67.22 68.24 67.01 67.40

GFSSGP_sfc_wetblb_219.txt.gz
Wetbulb
64.49 59.60 60.06 58.53 47.87 48.02 43.49 47.86 51.04 55.12 60.17 62.63 63.27 60.94 59.76 61.74 59.83 55.09 67.50 69.40 71.47 74.72 75.90 77.36 78.46 78.59 78.09 77.63 77.15 76.62 76.36 76.56 76.84 76.59 76.65 76.89 77.17 77.37 77.23 77.20 77.73 77.89 77.34 77.03 76.48 76.01 76.25 76.65 76.76
63.93 60.63 57.68 52.67 46.00 41.14 44.15 49.44 49.22 56.99 61.81 62.01 61.92 62.11 61.18 58.76 65.97 65.36 66.84 71.69 75.69 74.08 74.92 77.19 78.26 78.21 78.21 77.53 76.85 76.57 76.42 76.86 76.89 76.82 76.75 76.75 77.11 77.37 77.25 76.98 77.79 77.76 77.11 76.57 76.14 76.37 76.51 76.63 76.64
64.30 61.95 51.22 48.80 45.90 42.29 44.38 48.15 49.86 53.14 63.61 65.93 62.38 63.90 62.34 62.01 65.95 66.11 71.28 75.46 74.46 74.32 75.67 77.05 78.05 77.77 77.90 77.37 76.97 76.54 76.54 76.86 76.94 76.74 76.87 76.99 77.21 77.26 77.01 77.03 77.51 77.78 76.91 76.43 76.52 76.78 76.95 76.82 76.57
57.37 53.28 52.63 46.44 46.06 51.46 46.31 48.55 50.31 52.69 63.09 65.57 63.75 63.44 64.74 68.61 68.54 69.88 75.34 74.84 74.38 73.69 75.39 77.15 77.75 77.75 77.62 77.42 77.02 76.72 76.54 76.77 77.12 76.94 76.97 77.12 77.32 77.08 77.06 77.03 77.15 77.41 77.55 77.29 77.32 76.93 76.73 76.62 76.35
56.15 49.35 45.39 45.55 46.61 50.90 52.31 50.62 51.36 50.95 58.50 60.98 64.18 62.41 64.22 71.71 73.63 74.78 75.00 76.21 73.20 72.48 74.65 75.82 77.37 77.55 77.70 77.53 77.28 76.90 76.80 76.64 76.94 76.99 77.20 77.14 77.16 77.05 76.91 77.00 76.75 77.08 77.18 77.22 77.25 76.83 76.50 76.22 75.85
47.60 46.88 39.99 41.83 49.47 51.58 48.70 50.22 50.15 51.02 52.62 56.03 58.86 58.08 59.53 67.42 70.42 74.43 75.91 73.12 69.68 72.14 73.32 74.55 76.93 77.30 77.30 77.35 77.29 77.09 76.86 76.79 76.79 77.01 76.97 77.09 76.88 76.91 76.81 77.07 76.65 76.55 76.83 76.80 76.98 76.70 76.20 75.60 74.90
44.28 43.75 39.73 40.55 45.35 49.53 49.73 49.71 47.79 49.32 50.81 51.97 56.96 52.23 53.70 56.68 59.10 70.28 75.34 74.36 71.89 72.56 73.08 73.57 74.57 76.30 77.18 77.04 76.81 76.88 76.98 76.88 76.78 76.65 76.47 76.78 76.78 76.55 76.61 76.71 76.72 76.45 76.15 76.17 76.47 76.29 76.01 75.51 74.79
46.67 45.31 42.84 42.31 41.92 42.95 50.33 50.57 49.02 49.78 51.17 56.48 56.73 50.86 48.80 55.43 59.95 60.84 70.84 74.77 74.07 73.74 73.28 72.76 73.50 74.61 74.29 75.48 76.99 76.71 76.73 76.68 76.80 76.73 76.60 76.65 76.60 76.40 76.41 75.98 76.18 76.57 76.22 76.05 76.02 75.91 75.58 75.18 74.19
47.90 40.93 39.69 43.06 44.62 45.06 49.08 46.54 50.21 52.45 51.31 54.42 55.24 54.32 55.66 59.73 60.80 58.33 57.89 64.05 71.41 73.94 74.21 73.23 73.65 72.77 72.68 73.38 75.50 76.51 76.94 76.81 76.78 76.83 76.65 75.89 74.53 74.78 75.45 75.84 75.88 76.54 76.39 76.17 75.69 75.34 74.72 74.05 73.58
45.31 41.15 43.30 48.28 47.51 45.11 48.47 48.31 49.72 50.07 50.75 52.42 54.11 56.04 57.90 58.89 57.95 57.00 55.50 54.09 56.22 58.63 61.54 70.17 67.12 69.24 73.09 74.33 73.22 73.35 74.46 74.87 74.90 74.98 75.20 74.80 73.67 72.58 74.23 74.99 75.69 76.02 76.24 76.04 75.76 75.34 74.74 74.17 69.68
44.26 43.20 47.74 48.94 50.57 49.09 48.10 48.93 49.36 49.21 46.67 51.15 51.58 52.86 55.78 56.94 55.76 55.67 55.97 55.53 55.85 58.68 62.17 62.70 64.33 65.42 64.78 72.03 72.63 72.48 72.48 71.83 72.41 72.55 73.17 73.03 72.86 72.39 73.27 72.70 73.31 73.35 75.56 74.08 74.59 73.91 72.89 70.78 69.67
42.28 47.89 48.78 48.10 49.72 47.90 47.13 49.81 49.05 48.68 47.89 53.19 53.47 54.03 53.84 53.50 54.61 54.98 54.33 55.85 58.05 59.92 62.62 63.66 63.50 63.74 63.29 64.25 64.56 65.57 70.32 72.88 71.47 71.31 71.20 72.56 71.39 69.87 69.68 69.52 71.97 72.52 73.17 72.54 71.54 71.61 71.40 70.53 69.24
44.09 47.42 49.13 48.62 47.13 45.92 49.49 48.40 48.40 47.85 51.24 53.45 53.75 54.04 52.93 52.41 54.13 55.98 56.24 58.85 59.97 61.57 62.85 62.94 63.10 64.95 65.17 64.73 65.50 64.56 64.27 65.80 72.23 72.82 72.54 72.35 72.25 70.81 70.43 69.60 71.58 71.96 72.01 72.07 71.08 70.34 70.07 69.85 69.32
47.08 47.18 46.87 47.33 47.13 47.40 47.04 48.05 48.51 49.69 51.99 51.89 52.33 51.81 51.06 51.80 51.68 53.36 58.07 60.00 61.63 62.20 62.27 62.46 62.96 63.36 64.22 64.48 64.79 65.04 64.55 64.56 65.41 69.64 73.73 72.58 72.51 72.18 70.61 70.68 71.05 70.93 71.70 71.92 71.59 70.33 70.08 69.47 69.58
48.59 43.81 46.85 46.77 47.85 47.31 49.12 46.39 47.31 50.80 51.16 50.43 51.59 51.86 52.35 52.22 53.26 52.10 57.11 59.04 61.43 62.11 61.01 60.29 61.52 62.02 61.47 61.77 63.57 64.71 64.07 65.14 63.74 64.78 67.31 73.82 73.08 72.51 72.31 71.05 70.46 70.18 70.46 69.82 70.63 70.76 69.40 69.10 69.69
45.02 43.36 38.82 46.18 48.52 48.92 47.55 40.84 48.33 50.68 49.99 49.58 51.22 51.80 52.84 52.04 52.35 54.97 58.48 59.71 59.76 60.35 59.61 60.52 62.13 60.52 60.66 61.13 61.81 63.62 65.19 64.15 63.88 63.84 65.02 69.12 74.15 73.54 72.27 71.74 70.83 70.68 70.01 69.30 68.89 68.68 67.92 68.57 68.89
43.74 38.19 40.92 45.00 48.28 47.80 45.71 42.15 48.46 50.95 50.12 49.28 49.57 50.52 51.57 50.98 52.12 55.18 59.42 59.53 59.10 58.76 59.07 60.30 59.91 59.30 60.55 60.02 58.83 60.28 60.75 62.76 63.46 63.31 63.71 64.72 70.67 74.13 72.31 72.16 72.41 71.48 70.18 70.22 69.64 68.73 67.85 67.03 67.18
39.21 40.28 41.86 42.54 46.79 46.65 44.48 44.05 47.53 49.23 49.11 48.75 48.68 49.19 49.87 50.07 50.97 57.63 58.79 59.73 59.57 59.10 58.94 59.57 59.97 59.61 60.27 58.54 57.96 56.74 57.27 57.47 57.88 59.97 62.78 64.51 65.60 71.51 72.62 72.33 71.39 71.69 69.75 68.89 69.79 68.49 68.12 68.10 67.48
44.69 42.86 42.24 45.21 48.61 45.72 44.23 44.53 46.72 48.03 47.11 46.96 47.64 48.55 48.99 52.20 56.37 57.23 58.45 59.27 59.11 58.62 58.12 58.12 59.06 58.94 58.67 58.27 56.62 57.00 56.25 57.31 58.02 58.53 61.49 61.66 65.82 62.64 71.04 72.67 71.39 71.74 69.98 69.37 68.98 67.31 65.92 66.70 67.77
44.86 42.63 42.23 45.70 48.15 45.60 43.92 44.15 46.35 47.05 47.66 48.38 49.05 48.75 47.64 53.45 55.01 56.73 56.56 57.43 57.72 57.17 56.89 57.91 58.18 58.39 57.71 57.37 57.54 58.58 57.33 57.14 57.99 57.09 57.62 59.66 60.99 61.50 65.62 69.54 68.54 69.48 68.97 67.04 68.03 68.25 65.89 66.55 67.57
43.73 42.18 42.08 41.65 44.89 44.87 43.11 40.63 43.08 47.62 48.92 49.49 47.24 47.60 48.62 50.35 52.91 55.12 55.87 55.75 56.91 57.01 56.46 57.28 57.27 57.72 57.67 58.24 56.74 56.93 55.61 55.99 55.98 57.60 58.69 59.12 60.10 61.67 61.78 66.62 69.46 68.50 65.33 65.13 64.47 68.63 67.26 66.21 66.41
40.27 46.81 45.52 43.94 40.18 33.79 42.18 34.27 41.57 44.37 46.48 48.16 46.64 46.20 47.30 48.80 50.19 54.67 55.36 55.29 55.57 56.81 57.37 57.16 56.75 56.63 58.72 57.60 55.73 54.80 53.68 52.97 54.26 55.71 58.00 58.78 58.99 59.43 61.77 62.82 67.66 66.90 63.87 61.09 62.88 66.86 68.43 66.93 65.72
43.21 47.01 44.48 44.13 39.55 37.50 39.48 34.61 41.40 44.07 44.06 46.64 48.72 49.77 49.56 51.64 51.72 54.11 55.08 56.42 56.05 56.54 55.32 58.27 57.31 56.24 56.94 57.16 56.50 54.88 53.90 54.65 55.34 55.52 55.71 56.71 58.42 59.72 60.95 63.00 64.31 63.39 62.63 65.54 66.81 66.79 67.03 65.90 65.32
48.43 44.55 43.30 40.96 37.51 30.11 38.06 36.91 35.17 40.69 43.60 46.48 48.71 49.35 51.62 51.85 51.79 52.02 53.34 54.19 54.16 56.60 55.97 55.82 56.41 56.43 57.86 57.06 56.90 55.53 54.61 55.12 54.47 53.82 54.36 56.13 57.21 57.57 58.34 61.55 60.58 60.63 63.12 63.80 65.43 67.08 66.86 67.34 67.95
44.59 37.92 28.49 27.84 27.83 29.39 40.21 36.26 36.12 43.90 46.83 46.76 46.64 48.09 49.82 51.16 50.18 51.07 50.94 50.52 52.58 52.99 55.10 57.45 55.85 55.41 57.14 56.14 56.27 55.34 55.13 54.47 53.85 53.24 53.41 53.60 55.85 55.78 56.74 57.46 58.74 58.12 57.19 58.33 61.97 64.36 66.25 67.04 66.26
40.60 36.63 28.95 25.30 25.09 31.43 39.30 32.29 36.85 46.10 47.76 48.49 48.89 49.57 51.23 51.11 50.82 50.60 50.51 50.93 51.66 53.30 54.63 54.44 54.35 56.10 56.22 55.11 55.29 54.92 54.22 54.08 53.83 53.64 53.59 54.93 54.84 55.82 57.33 57.73 59.50 58.94 58.82 58.08 58.50 59.84 61.81 65.30 66.50
40.82 35.10 40.97 33.40 35.17 30.18 33.72 38.81 42.82 47.21 47.39 47.09 47.31 48.19 48.99 49.35 48.71 49.71 50.36 52.27 52.52 52.77 53.23 53.59 53.63 53.58 55.66 53.86 53.47 53.30 53.79 53.57 54.61 53.40 53.70 54.21 54.94 56.50 57.35 57.81 57.21 58.95 62.45 62.55 61.39 59.13 62.96 64.17 64.65
42.29 44.11 33.21 34.36 27.07 25.44 32.29 34.38 36.01 40.79 42.78 46.49 45.26 45.83 47.45 49.10 48.33 50.03 51.06 51.73 52.88 52.91 52.01 51.25 51.59 52.64 52.97 52.24 52.98 53.43 52.87 53.59 53.83 53.51 52.62 53.01 53.95 54.61 55.11 56.49 57.12 57.78 59.71 62.42 61.81 60.43 63.48 61.24 61.26
40.52 36.84 37.29 36.74 36.90 25.44 26.21 30.14 43.19 41.36 41.14 40.97 42.60 44.99 45.42 46.07 47.23 47.76 48.23 50.29 51.39 51.30 50.81 50.54 50.79 51.48 51.03 50.70 51.22 50.93 52.24 52.59 52.40 51.91 51.95 52.25 53.54 54.79 55.39 56.18 57.12 57.53 58.26 60.59 60.43 58.85 59.18 59.79 59.78
43.73 41.60 39.27 33.42 31.64 34.97 33.73 32.48 43.96 43.61 44.13 44.02 45.00 45.74 45.42 47.25 48.28 47.98 47.65 48.94 48.81 51.13 51.84 50.49 49.79 48.88 50.03 50.35 49.65 49.49 50.38 50.22 49.27 49.62 50.17 50.82 51.23 52.64 53.12 53.42 54.64 56.82 58.13 59.57 61.74 60.35 60.43 62.40 62.83

GFSSGP_sfc_wetblb_222.txt.gz
Wetbulb
67.29 59.21 58.38 57.01 47.81 47.71 42.73 44.76 53.37 58.12 58.09 60.97 63.13 61.89 60.95 62.29 59.87 54.90 68.98 68.95 71.79 71.25 76.31 77.48 78.46 77.81 77.18 77.01 76.35 76.27 76.53 76.46 76.44 76.30 76.73 76.85 76.83 76.91 77.23 77.08 77.13 77.03 76.45 75.98 75.91 76.17 76.81 76.87 76.82
62.43 60.13 55.56 50.11 45.20 43.48 43.16 46.56 56.24 57.98 60.17 61.71 62.50 62.19 61.50 59.43 65.94 65.32 67.20 71.25 71.25 70.51 75.38 76.96 78.36 78.01 77.36 77.15 76.60 76.51 76.61 76.47 76.42 76.22 76.53 76.65 76.82 76.60 76.88 77.23 77.33 77.15 76.06 75.84 75.93 75.97 76.31 76.60 76.57
60.01 60.20 49.51 48.04 42.95 42.43 42.41 45.70 57.65 59.74 61.52 62.35 61.85 63.63 62.56 62.36 65.51 66.75 70.31 71.00 71.39 73.77 76.00 76.95 78.18 77.79 77.45 76.68 76.55 76.39 76.81 76.56 76.32 76.15 76.35 76.45 76.67 76.62 76.43 77.00 77.36 76.98 75.93 75.68 76.01 76.21 76.27 76.12 76.20
56.49 50.54 49.05 45.05 44.64 46.63 46.69 46.24 59.56 60.17 62.84 64.96 63.47 63.67 66.01 68.32 66.36 70.56 72.55 72.68 73.66 73.50 75.65 77.51 77.74 77.79 77.57 77.00 76.75 76.59 76.71 76.64 76.37 76.10 76.25 76.27 76.30 76.61 76.29 76.80 77.13 77.28 76.77 76.24 76.21 76.43 76.30 75.90 75.78
51.69 46.72 42.72 42.93 44.25 50.39 48.80 50.45 52.09 53.78 56.12 62.92 64.18 63.39 65.31 68.66 71.64 70.42 68.74 69.01 67.85 70.68 74.06 76.76 77.64 77.62 77.50 77.21 76.80 76.62 76.72 76.81 76.84 76.50 76.35 76.47 76.63 76.68 76.71 76.50 76.90 77.26 77.31 77.00 76.40 76.60 76.10 75.82 75.67
46.16 44.08 38.27 37.90 43.54 49.52 49.93 50.18 51.14 49.72 51.16 57.41 58.14 58.96 61.05 72.39 70.56 69.12 69.23 68.10 68.35 66.79 73.31 74.94 77.43 77.50 77.14 77.02 76.62 76.42 76.31 76.61 76.73 76.79 76.76 76.89 76.77 76.50 76.68 76.52 76.50 76.75 76.91 76.91 76.93 76.37 75.99 75.41 74.99
43.48 41.08 36.96 36.66 41.70 45.39 49.09 50.34 49.32 49.60 51.33 51.26 54.80 51.06 52.48 62.09 70.54 69.27 69.97 68.45 67.42 67.34 72.51 73.43 75.29 76.75 77.23 76.79 76.49 76.24 76.11 76.28 76.33 76.32 76.34 76.50 76.42 76.33 76.46 76.56 76.37 76.30 76.25 76.27 76.47 76.37 75.86 75.36 74.89
45.25 41.78 37.72 37.57 39.32 42.61 48.89 49.18 49.76 49.51 50.11 54.85 55.47 50.86 48.88 55.12 70.66 69.83 67.99 67.79 68.99 71.85 72.50 72.47 73.84 74.72 75.12 75.63 76.87 76.61 76.24 76.04 75.93 76.12 76.20 76.21 76.32 76.28 76.28 75.51 76.02 76.39 76.02 75.87 75.87 76.08 75.90 75.27 74.82
44.38 38.42 35.69 38.86 42.19 43.83 47.58 46.18 50.38 52.18 51.31 52.18 53.24 53.01 55.02 58.08 71.52 70.85 69.72 71.21 72.26 72.19 72.13 72.05 72.76 72.47 72.95 73.80 75.34 76.31 76.50 76.51 76.23 76.05 76.10 75.14 74.44 74.40 74.78 75.38 75.62 76.41 76.14 75.87 75.69 75.46 75.18 74.93 74.55
42.57 37.78 39.03 45.25 44.13 42.41 43.84 46.21 47.76 49.13 49.50 50.18 52.31 54.59 57.00 57.65 57.39 59.88 57.99 63.58 62.37 68.49 70.27 63.70 64.89 71.89 71.71 73.32 73.37 72.99 74.50 74.74 74.56 74.37 74.16 73.57 72.98 72.82 74.31 74.87 75.83 75.91 76.26 76.01 75.48 75.18 74.96 74.24 70.09
42.21 40.60 44.69 47.26 47.56 46.28 45.67 46.28 47.41 47.23 45.61 49.73 50.66 52.89 55.20 55.72 54.86 56.19 57.57 58.93 59.75 61.00 61.94 63.03 63.50 64.16 64.00 66.91 71.23 71.39 71.87 72.47 72.87 73.36 73.18 72.96 73.29 72.21 73.46 72.19 73.24 73.22 75.10 73.84 74.42 73.64 72.89 70.99 69.69
41.53 45.43 46.54 47.45 47.62 45.99 45.72 47.62 46.99 46.79 47.37 52.15 52.06 52.69 52.01 53.85 52.67 53.83 56.45 57.78 58.35 60.59 60.86 61.17 62.97 63.70 63.64 63.77 63.89 64.29 64.25 69.32 70.77 70.72 71.30 72.04 71.49 70.40 70.53 71.50 71.01 71.51 72.26 72.56 71.98 72.28 71.66 70.63 69.75
45.33 44.90 47.26 46.94 45.90 45.16 47.58 46.90 46.37 45.09 50.45 52.15 52.29 52.79 51.59 51.86 53.25 54.38 57.04 58.88 60.01 59.75 60.17 60.76 61.46 61.56 62.80 63.37 62.85 62.81 62.92 63.19 64.34 70.54 70.65 71.20 70.81 70.27 69.49 68.82 70.10 70.86 71.27 72.07 70.79 70.40 70.48 70.14 69.44
45.37 45.13 45.92 45.42 44.69 45.86 46.00 46.73 47.68 48.59 50.45 50.66 51.31 50.31 50.11 50.61 51.90 55.99 57.92 59.01 59.50 59.26 58.82 59.64 59.31 59.21 59.56 59.82 59.69 60.84 62.58 62.50 62.72 64.12 67.73 71.22 70.79 70.71 69.59 68.98 68.93 70.10 70.91 71.19 70.90 69.92 69.43 69.11 68.73
47.08 44.88 44.94 44.93 44.96 45.18 47.62 45.62 46.49 49.60 50.44 48.64 49.47 49.62 50.75 51.36 51.98 55.52 57.87 58.50 58.85 58.78 59.12 58.84 59.02 59.00 58.99 58.83 58.71 59.77 60.65 62.33 61.73 62.60 63.72 65.86 69.48 70.57 70.70 68.87 68.90 70.13 70.77 70.38 70.67 70.16 68.75 68.22 68.54
44.30 41.90 37.88 45.19 46.02 47.11 46.29 40.53 47.22 49.70 48.50 47.68 49.08 50.08 50.97 51.34 51.04 56.11 58.65 58.88 58.24 58.24 57.98 57.94 60.01 58.20 58.72 56.94 57.59 57.95 58.72 57.36 58.22 59.29 61.02 63.80 65.78 67.11 71.08 71.27 69.74 70.81 69.17 69.62 69.33 69.49 68.54 68.27 68.09
41.42 36.96 38.44 43.31 45.37 45.86 44.14 41.29 46.72 48.63 48.33 47.46 47.68 48.36 49.81 49.79 52.07 57.58 58.80 58.53 58.05 58.45 57.91 56.55 56.77 58.05 58.59 56.33 56.60 56.31 56.87 55.90 56.68 57.47 58.59 60.90 64.00 63.53 65.45 70.94 70.91 69.96 68.85 67.34 66.94 66.42 66.11 65.98 66.22
37.00 37.36 38.88 39.48 44.32 43.70 41.74 42.17 46.91 48.31 47.38 47.34 47.15 47.65 48.49 49.40 51.77 57.05 57.72 58.24 58.04 58.06 57.71 57.15 57.06 57.31 57.96 56.61 56.10 56.53 56.49 55.82 56.41 57.24 58.29 57.87 60.74 60.55 64.48 65.20 70.64 70.37 68.51 67.61 67.31 66.44 66.10 65.61 65.62
42.53 40.54 39.63 42.29 45.60 43.38 40.74 41.79 44.05 45.75 44.70 45.14 45.96 46.13 47.06 47.58 55.91 57.37 57.69 58.13 57.50 57.19 56.75 56.88 56.65 55.91 57.19 55.29 55.07 55.09 54.61 54.44 56.15 56.27 57.39 57.63 58.89 59.45 62.11 61.68 66.13 68.87 68.35 68.01 67.59 66.42 66.94 67.29 66.00
43.40 40.14 39.25 42.24 44.94 42.36 41.37 40.75 43.06 45.05 45.57 48.15 47.54 47.87 48.55 51.22 54.40 56.05 56.71 57.06 56.70 55.68 55.80 56.72 56.74 55.56 57.00 55.29 55.98 56.24 54.91 54.73 55.60 55.27 56.01 57.20 58.64 58.75 59.33 60.01 62.29 66.98 66.82 66.19 66.19 66.56 65.35 66.38 65.83
40.57 40.02 39.53 39.67 42.53 41.98 41.10 38.78 42.17 46.28 47.75 49.59 49.01 49.71 50.05 50.71 51.57 53.16 55.00 54.77 54.71 55.27 55.76 56.29 56.02 55.61 57.21 56.26 55.04 54.53 53.24 53.25 53.11 54.02 55.24 56.45 57.63 58.55 58.98 59.78 62.10 65.53 65.85 64.97 65.11 65.21 65.45 64.61 64.48
38.04 44.22 43.94 42.50 38.64 33.02 40.39 30.46 38.84 41.71 44.70 46.85 47.81 48.28 49.40 48.99 50.40 50.95 52.39 52.86 53.42 54.14 55.03 54.51 55.34 55.31 56.55 55.63 54.05 52.97 51.88 51.29 52.26 53.07 54.70 55.12 56.07 57.79 59.34 60.41 61.86 62.98 64.68 61.53 62.33 61.94 63.44 63.76 62.63
42.06 45.12 42.19 42.01 37.05 33.48 36.08 32.04 36.11 41.70 41.19 42.98 45.65 48.81 48.39 48.99 49.96 50.31 51.22 53.41 54.80 54.70 53.89 54.31 54.07 54.73 55.46 55.15 54.68 53.31 52.46 53.04 53.74 53.59 52.90 52.44 54.51 56.23 58.91 58.77 58.54 58.02 60.16 62.66 63.18 63.54 63.29 64.77 64.24
46.18 42.15 39.73 37.52 33.87 28.50 33.95 34.12 32.44 37.38 40.84 42.78 45.51 48.31 50.01 49.49 49.28 49.79 50.75 52.40 54.25 55.28 56.03 56.31 54.54 53.75 54.39 54.32 55.11 54.08 53.27 52.34 52.53 51.34 51.10 51.70 52.11 54.85 54.47 56.95 57.03 57.65 57.94 58.19 60.20 62.43 63.55 64.63 65.32
42.35 35.18 26.20 26.40 25.28 26.50 36.27 34.14 33.78 41.71 43.93 44.44 45.00 47.61 49.88 49.88 49.98 50.22 51.00 51.35 52.71 54.63 56.36 57.66 56.92 56.36 55.29 54.72 54.69 54.34 53.19 53.27 51.88 51.12 50.95 51.29 52.59 51.42 53.05 54.88 55.92 57.12 57.31 57.73 56.66 56.23 59.21 60.31 61.50
37.93 35.41 26.53 23.07 22.98 29.80 36.58 30.81 34.96 43.78 45.27 46.41 46.86 47.52 49.17 48.12 48.47 50.35 50.53 51.91 52.43 53.83 53.83 55.08 55.13 55.58 55.04 54.46 54.25 53.56 53.65 52.13 51.73 51.53 52.45 51.61 51.21 52.48 54.44 54.55 55.60 56.54 57.83 58.75 59.56 58.87 58.01 58.08 60.73
39.66 33.35 37.93 31.31 31.38 27.89 31.51 35.67 41.08 43.71 43.64 44.54 45.26 46.08 45.57 47.57 48.30 49.24 50.99 50.88 51.51 52.13 52.95 53.52 53.08 53.39 53.14 53.39 53.26 51.67 51.53 52.03 51.56 52.19 51.03 52.14 51.79 53.70 53.58 53.97 54.50 55.93 57.31 57.94 58.24 59.42 60.20 58.61 60.79
40.16 41.76 31.26 30.28 24.23 23.97 29.45 32.19 33.39 38.42 39.88 41.51 42.08 43.15 43.95 45.51 46.31 47.10 47.98 49.27 50.76 51.04 50.96 50.21 51.22 51.91 50.87 51.10 50.44 51.39 50.93 51.42 51.68 51.49 50.15 49.98 50.42 51.44 52.90 53.53 53.97 55.11 56.07 56.99 57.34 58.31 60.26 59.79 60.45
37.81 35.15 35.34 33.46 32.05 26.44 26.73 28.19 40.19 38.39 39.65 39.51 40.91 43.90 43.88 44.62 46.12 46.50 46.58 47.44 47.55 47.51 49.14 49.35 48.39 47.17 47.41 48.38 48.44 48.42 49.32 50.20 49.46 48.60 48.86 49.10 49.44 49.84 50.29 51.27 52.02 52.03 52.44 53.93 55.82 57.23 59.49 59.76 59.83
40.62 36.98 35.75 29.97 28.21 30.93 30.69 28.20 41.00 41.93 41.22 42.78 43.39 43.60 42.96 43.20 43.61 46.29 45.77 46.37 45.80 45.50 46.06 46.82 47.01 46.93 47.21 47.83 47.37 46.85 47.33 47.95 47.07 47.42 47.72 47.75 47.49 47.73 48.23 49.27 49.85 50.63 51.48 53.21 55.11 56.37 58.36 60.10 58.68